Weather History for KILG - June, 2013

Change the Weather History Date:

Monday, June 24, 2013

  Actual Average Record
Temperature  
Mean Temperature 80 °F 75 °F  
Max Temperature 91 °F 84 °F 102 °F (1894)
Min Temperature 69 °F 65 °F 49 °F (1947)
Degree Days  
Heating Degree Days 0 0  
Month to date heating degree days 0 13  
Since 1 June heating degree days 0 13  
Since 1 July heating degree days 4620 4817  
Cooling Degree Days 15 10  
Month to date cooling degree days 171 169  
Year to date cooling degree days 278 248  
Since 1 June cooling degree days 171 169  
Growing Degree Days 30 (Base 50)    
Moisture  
Dew Point 70 °F    
Average Humidity 80    
Maximum Humidity 100    
Minimum Humidity 59    
Precipitation  
Precipitation 0.02 in 0.13 in 1.85 in (1944)
Month to date precipitation 10.07 3.10  
Year to date precipitation 23.47 20.16  
Snow  
Snow 0.00 in 0.00 in 0.00 in (1894)
Month to date snowfall 0.0 0.0  
Since 1 June snowfall 0.0 0.0  
Since 1 July snowfall 5.5 20.2  
Snow Depth 0.00 in    
Sea Level Pressure  
Sea Level Pressure 30.08 in    
Wind  
Wind Speed 5 mph (SW)    
Max Wind Speed 22 mph    
Max Gust Speed 28 mph    
Visibility 10 miles    
Events Rain , Thunderstorm    
T = Trace of Precipitation, MM = Missing Value Source: NWS Daily Summary

Daily Weather History Graph

Daily Weather History Graph

Search for Another Location

Airport or City:

Trip Planner

Search our weather history database for the weather conditions in past years. The results will help you decide how hot, cold, wet, or windy it might be!

Date:

Astronomy

Jun. 24, 2013 Rise Set
Actual Time 5:35 AM EDT 8:34 PM EDT
Civil Twilight 5:03 AM EDT 9:06 PM EDT
Nautical Twilight 4:21 AM EDT 9:48 PM EDT
Astronomical Twilight 3:33 AM EDT 10:36 PM EDT
Moon 9:35 PM EDT (6/24) 7:00 AM EDT (6/24)
Length of Visible Light 16h 03m
Length of Day
14h 58m
Full, 98% of the Moon is Illuminated
Jun 24
Full
Jun 30
Last Quarter
Jul 8
New
Jul 15
First Quarter
Jul 22
Full

Hourly Weather History & Observations

Time (EDT) Temp. Heat Index Dew Point Humidity Pressure Visibility Wind Dir Wind Speed Gust Speed Precip Events Conditions
12:51 AM 73.0 °F - 71.1 °F 93% 30.11 in 10.0 mi SW 4.6 mph - N/A   Clear
1:51 AM 73.9 °F - 71.1 °F 91% 30.10 in 10.0 mi West 5.8 mph - N/A   Clear
2:51 AM 73.0 °F - 71.1 °F 93% 30.09 in 10.0 mi Calm Calm - N/A   Clear
3:51 AM 73.0 °F - 71.1 °F 93% 30.09 in 10.0 mi Calm Calm - N/A   Clear
4:51 AM 72.0 °F - 70.0 °F 93% 30.10 in 9.0 mi Calm Calm - N/A   Clear
5:51 AM 72.0 °F - 71.1 °F 97% 30.11 in 7.0 mi Calm Calm - N/A   Partly Cloudy
6:09 AM 71.6 °F - 69.8 °F 94% 30.10 in 9.0 mi Calm Calm - N/A   Mostly Cloudy
6:51 AM 73.9 °F - 72.0 °F 93% 30.11 in 10.0 mi SW 3.5 mph - N/A   Overcast
7:09 AM 73.4 °F - 71.6 °F 94% 30.11 in 8.0 mi SSW 4.6 mph - N/A   Overcast
7:51 AM 75.9 °F - 73.0 °F 91% 30.12 in 10.0 mi SW 6.9 mph - N/A   Mostly Cloudy
8:17 AM 77.0 °F - 73.4 °F 89% 30.12 in 10.0 mi SW 8.1 mph - N/A   Mostly Cloudy
8:32 AM 78.8 °F - 73.4 °F 83% 30.12 in 10.0 mi WSW 5.8 mph - N/A   Scattered Clouds
8:51 AM 79.0 °F - 73.0 °F 82% 30.12 in 10.0 mi SSW 5.8 mph - N/A   Clear
9:51 AM 82.0 °F 87.4 °F 73.0 °F 74% 30.11 in 10.0 mi WSW 6.9 mph - N/A   Clear
10:51 AM 86.0 °F 93.8 °F 73.9 °F 67% 30.11 in 10.0 mi Calm Calm - N/A   Clear
11:51 AM 87.1 °F 95.4 °F 73.9 °F 65% 30.10 in 10.0 mi SSW 4.6 mph - N/A   Clear
12:51 PM 88.0 °F 96.5 °F 73.9 °F 63% 30.10 in 10.0 mi Variable 3.5 mph - N/A   Clear
1:51 PM 89.1 °F 97.0 °F 73.0 °F 59% 30.07 in 10.0 mi South 10.4 mph - N/A   Clear
2:07 PM 89.6 °F 96.2 °F 71.6 °F 55% 30.05 in 10.0 mi SSW 11.5 mph - N/A Thunderstorm Clear
2:51 PM 81.0 °F 81.7 °F 61.0 °F 50% 30.07 in 10.0 mi WNW 17.3 mph 26.5 mph N/A Thunderstorm Overcast
3:51 PM 78.1 °F - 68.0 °F 71% 30.06 in 9.0 mi East 3.5 mph - 0.01 in Rain , Thunderstorm Light Rain
4:15 PM 78.8 °F - 64.4 °F 61% 30.04 in 9.0 mi Calm Calm - 0.01 in Rain Light Rain
4:51 PM 79.0 °F - 68.0 °F 69% 30.02 in 10.0 mi SW 3.5 mph - 0.01 in Rain Light Rain
5:51 PM 81.0 °F 84.1 °F 69.1 °F 67% 30.01 in 10.0 mi WSW 5.8 mph - 0.00 in   Clear
6:51 PM 82.9 °F 87.5 °F 71.1 °F 67% 30.02 in 10.0 mi SSW 3.5 mph - N/A   Clear
7:22 PM 82.4 °F 87.2 °F 71.6 °F 70% 30.02 in 10.0 mi SW 4.6 mph - N/A Thunderstorm Scattered Clouds
7:51 PM 78.1 °F - 68.0 °F 71% 30.05 in 10.0 mi NNW 13.8 mph 24.2 mph N/A Thunderstorm Thunderstorm
8:00 PM 75.2 °F - 66.2 °F 73% 30.05 in 10.0 mi North 12.7 mph 20.7 mph N/A   Scattered Clouds
8:51 PM 73.0 °F - 66.0 °F 79% 30.01 in 10.0 mi WSW 3.5 mph - N/A   Clear
9:51 PM 73.0 °F - 66.0 °F 79% 30.03 in 10.0 mi ENE 5.8 mph - 0.00 in   Clear
10:51 PM 72.0 °F - 66.0 °F 81% 30.05 in 10.0 mi Calm Calm - N/A   Clear
11:51 PM 69.1 °F - 64.9 °F 87% 30.04 in 10.0 mi West 4.6 mph - N/A   Clear